FW8535 Weather Reports


time (UTC)temp
C
wind
direction
speed
KPH
gust
KPH
rain 1hr
cm
rain 24hr
cm
rain mn
cm
humidity
%
barometer
mb
20220927020502 16 36 0.0 1.6 0.00 0.00 0.00 43 941.0
20220927020002 17 36 0.0 1.6 0.00 0.00 0.00 43 940.8
20220927015603 17 36 0.0 1.6 0.00 0.00 0.00 43 940.8
20220927015505 17 36 0.0 1.6 0.00 0.00 0.00 43 940.7
20220927015100 17 36 0.0 3.2 0.00 0.00 0.00 42 940.8
20220927014603 17 36 0.0 3.2 0.00 0.00 0.00 43 940.7
20220927014101 16 36 0.0 3.2 0.00 0.00 0.00 43 940.6
20220927013600 16 36 0.0 1.6 0.00 0.00 0.00 46 940.7
20220927013106 16 36 0.0 1.6 0.00 0.00 0.00 44 940.6
20220927012559 17 36 0.0 1.6 0.00 0.00 0.00 42 940.6
20220927012059 17 36 0.0 1.6 0.00 0.00 0.00 42 940.5
20220927011709 17 36 0.0 1.6 0.00 0.00 0.00 41 940.5
20220927010558 18 36 0.0 4.8 0.00 0.00 0.00 39 940.5
20220927010059 18 36 1.6 4.8 0.00 0.00 0.00 38 940.5
20220927005559 18 36 0.0 1.6 0.00 0.00 0.00 38 940.4
20220927005100 19 36 0.0 1.6 0.00 0.00 0.00 37 940.5
20220927004558 20 36 0.0 0.0 0.00 0.00 0.00 36 940.5
20220927004057 20 36 0.0 0.0 0.00 0.00 0.00 35 940.6
20220927003558 21 36 0.0 0.0 0.00 0.00 0.00 34 940.6
20220927003112 21 36 0.0 0.0 0.00 0.00 0.00 34 940.4
20220927002558 22 36 0.0 1.6 0.00 0.00 0.00 32 940.3
20220927002058 22 36 0.0 1.6 0.00 0.00 0.00 32 940.5
20220927001557 22 36 0.0 1.6 0.00 0.00 0.00 31 940.4
20220927000558 22 36 0.0 4.8 0.00 0.00 0.00 30 940.4
20220927000112 23 36 0.0 4.8 0.00 0.00 0.00 30 940.4
20220926235600 23 36 1.6 4.8 0.00 0.00 0.00 29 940.4
20220926235057 23 36 1.6 9.7 0.00 0.00 0.00 28 940.4
20220926234609 23 35 3.2 9.7 0.00 0.00 0.00 29 940.4
20220926234058 23 51 1.6 8.0 0.00 0.00 0.00 28 940.4
20220926233556 23 22 4.8 9.7 0.00 0.00 0.00 28 940.5
20220926233057 23 15 4.8 9.7 0.00 0.00 0.00 28 940.4
20220926232556 23 15 1.6 6.4 0.00 0.00 0.00 28 940.4
20220926232056 23 321 3.2 8.0 0.00 0.00 0.00 28 940.5
20220926231556 23 342 1.6 8.0 0.00 0.00 0.00 28 940.4
20220926230555 23 5 3.2 12.9 0.00 0.00 0.00 28 940.5
20220926230056 23 11 4.8 12.9 0.00 0.00 0.00 28 940.4
20220926225603 23 26 6.4 12.9 0.00 0.00 0.00 28 940.5
20220926225055 23 360 6.4 16.1 0.00 0.00 0.00 28 940.4
20220926224554 23 40 8.0 16.1 0.00 0.00 0.00 27 940.5
20220926224055 23 12 4.8 14.5 0.00 0.00 0.00 28 940.6
20220926223555 24 355 3.2 16.1 0.00 0.00 0.00 27 940.4
20220926223107 24 47 8.0 16.1 0.00 0.00 0.00 27 940.4
20220926222556 24 9 4.8 14.5 0.00 0.00 0.00 27 940.5
20220926222054 24 336 6.4 14.5 0.00 0.00 0.00 28 940.4
20220926221605 24 24 6.4 17.7 0.00 0.00 0.00 27 940.6
20220926220554 24 344 8.0 17.7 0.00 0.00 0.00 28 940.4
20220926220054 24 337 4.8 19.3 0.00 0.00 0.00 28 940.4
20220926215552 24 31 8.0 17.7 0.00 0.00 0.00 27 940.4
20220926215057 24 307 3.2 17.7 0.00 0.00 0.00 27 940.4
20220926214605 24 26 6.4 17.7 0.00 0.00 0.00 28 940.4
20220926214051 24 336 4.8 14.5 0.00 0.00 0.00 27 940.4
20220926213553 24 15 3.2 17.7 0.00 0.00 0.00 27 940.4
20220926213059 24 27 9.7 17.7 0.00 0.00 0.00 27 940.4
20220926212550 24 28 6.4 17.7 0.00 0.00 0.00 27 940.8
20220926212049 24 13 8.0 17.7 0.00 0.00 0.00 26 940.4
20220926211608 24 5 6.4 16.1 0.00 0.00 0.00 27 940.4
20220926210550 24 13 6.4 22.5 0.00 0.00 0.00 27 940.5
20220926210100 24 36 8.0 22.5 0.00 0.00 0.00 27 940.4
20220926205550 24 333 6.4 19.3 0.00 0.00 0.00 27 940.4
20220926205052 24 349 6.4 20.9 0.00 0.00 0.00 26 940.4
20220926204549 24 17 6.4 17.7 0.00 0.00 0.00 27 940.4
20220926204053 24 355 6.4 19.3 0.00 0.00 0.00 27 940.4
20220926203549 24 49 9.7 20.9 0.00 0.00 0.00 26 940.4
20220926203049 24 5 6.4 16.1 0.00 0.00 0.00 27 940.4
20220926202549 24 315 4.8 20.9 0.00 0.00 0.00 28 940.5
20220926202049 23 15 12.9 20.9 0.00 0.00 0.00 27 940.5
20220926201548 23 5 12.9 20.9 0.00 0.00 0.00 27 940.5
20220926200551 24 355 9.7 20.9 0.00 0.00 0.00 27 940.4
20220926200055 24 17 4.8 19.3 0.00 0.00 0.00 26 940.5
20220926195545 24 45 9.7 19.3 0.00 0.00 0.00 26 940.5
20220926195048 24 51 6.4 19.3 0.00 0.00 0.00 27 940.3
20220926194545 24 12 9.7 19.3 0.00 0.00 0.00 26 940.6
20220926194044 23 355 11.3 19.3 0.00 0.00 0.00 26 940.5
20220926193544 23 320 9.7 20.9 0.00 0.00 0.00 26 940.4
20220926193128 23 351 6.4 19.3 0.00 0.00 0.00 27 940.4
20220926192543 23 34 11.3 19.3 0.00 0.00 0.00 26 940.5
20220926192044 23 64 8.0 19.3 0.00 0.00 0.00 26 940.5
20220926191550 23 40 9.7 20.9 0.00 0.00 0.00 26 940.4
20220926190541 23 22 6.4 20.9 0.00 0.00 0.00 27 940.4
20220926190052 23 355 6.4 20.9 0.00 0.00 0.00 27 940.5
20220926185542 23 22 6.4 19.3 0.00 0.00 0.00 28 940.6
20220926185042 23 5 11.3 19.3 0.00 0.00 0.00 28 940.6
20220926184539 23 355 9.7 19.3 0.00 0.00 0.00 28 940.6
20220926184038 23 340 6.4 16.1 0.00 0.00 0.00 28 940.5
20220926183538 23 12 6.4 16.1 0.00 0.00 0.00 28 940.7
20220926183103 23 348 4.8 16.1 0.00 0.00 0.00 28 940.6
20220926182537 23 12 9.7 16.1 0.00 0.00 0.00 27 940.5
20220926182036 22 340 6.4 19.3 0.00 0.00 0.00 28 940.5
20220926181535 22 317 6.4 19.3 0.00 0.00 0.00 28 940.5
20220926180535 22 339 3.2 16.1 0.00 0.00 0.00 29 940.4
20220926180034 22 9 8.0 16.1 0.00 0.00 0.00 29 940.4
20220926175533 21 17 4.8 14.5 0.00 0.00 0.00 29 940.5
20220926175036 21 24 6.4 14.5 0.00 0.00 0.00 29 940.5
20220926174531 21 305 6.4 14.5 0.00 0.00 0.00 30 940.6
20220926174031 21 335 4.8 14.5 0.00 0.00 0.00 30 940.7
20220926173540 21 22 8.0 16.1 0.00 0.00 0.00 29 940.6
20220926173036 21 311 4.8 16.1 0.00 0.00 0.00 30 940.6
20220926172530 21 9 4.8 17.7 0.00 0.00 0.00 30 940.3
20220926172033 21 348 3.2 17.7 0.00 0.00 0.00 31 940.4
20220926171530 21 355 4.8 14.5 0.00 0.00 0.00 31 940.5
20220926170529 21 18 8.0 16.1 0.00 0.00 0.00 31 940.5
20220926170036 21 344 4.8 17.7 0.00 0.00 0.00 32 940.4
20220926165528 21 309 4.8 14.5 0.00 0.00 0.00 31 940.4
20220926165028 21 345 3.2 14.5 0.00 0.00 0.00 31 940.4
20220926164528 21 292 3.2 14.5 0.00 0.00 0.00 32 940.5
20220926164026 20 300 3.2 9.7 0.00 0.00 0.00 33 940.3
20220926163525 20 319 4.8 16.1 0.00 0.00 0.00 32 940.5
20220926163040 20 35 4.8 12.9 0.00 0.00 0.00 33 940.5
20220926162523 19 355 4.8 12.9 0.00 0.00 0.00 36 940.5
20220926162021 18 258 1.6 6.4 0.00 0.00 0.00 38 940.4
20220926161523 17 252 3.2 9.7 0.00 0.00 0.00 41 940.4
20220926160525 17 180 6.4 11.3 0.00 0.00 0.00 40 940.4
20220926160027 17 186 1.6 8.0 0.00 0.00 0.00 41 940.4
20220926155522 16 202 3.2 8.0 0.00 0.00 0.00 40 940.3
20220926155022 16 202 4.8 8.0 0.00 0.00 0.00 41 940.3
20220926154519 16 171 3.2 8.0 0.00 0.00 0.00 41 940.3
20220926154018 15 137 4.8 8.0 0.00 0.00 0.00 42 940.4
20220926153516 15 211 1.6 9.7 0.00 0.00 0.00 43 940.3
20220926153015 15 211 6.4 9.7 0.00 0.00 0.00 43 940.4
20220926152517 15 210 4.8 8.0 0.00 0.00 0.00 43 940.4
20220926152017 14 209 3.2 6.4 0.00 0.00 0.00 43 940.5
20220926151512 14 209 3.2 8.0 0.00 0.00 0.00 43 940.5
20220926150507 13 209 0.0 9.7 0.00 0.00 0.00 44 940.5
20220926150010 13 210 4.8 9.7 0.00 0.00 0.00 45 940.4
20220926145504 13 205 6.4 12.9 0.00 0.00 0.00 45 940.2
20220926145004 13 218 6.4 14.5 0.00 0.00 0.00 47 940.0
20220926144508 12 212 4.8 12.9 0.00 0.00 0.00 47 940.1
20220926144004 12 217 6.4 16.1 0.00 0.00 0.00 47 940.0
20220926143602 12 224 9.7 17.7 0.00 0.00 0.00 48 939.9
20220926143058 12 215 9.7 17.7 0.00 0.00 0.00 49 940.0
20220926142559 11 236 11.3 19.3 0.00 0.00 0.00 50 939.9
20220926142056 11 231 11.3 19.3 0.00 0.00 0.00 50 939.9
20220926141554 11 218 8.0 19.3 0.00 0.00 0.00 51 939.8
20220926140553 11 221 12.9 22.5 0.00 0.00 0.00 51 939.7
20220926140051 10 229 12.9 22.5 0.00 0.00 0.00 51 939.6
20220926135550 10 225 12.9 19.3 0.00 0.00 0.00 52 939.5
20220926135049 10 215 12.9 24.1 0.00 0.00 0.00 53 939.5
20220926134551 10 222 14.5 24.1 0.00 0.00 0.00 53 939.5
20220926134046 10 221 12.9 19.3 0.00 0.00 0.00 54 939.5
20220926133546 9 223 12.9 22.5 0.00 0.00 0.00 54 939.5
20220926133052 9 231 12.9 22.5 0.00 0.00 0.00 55 939.5
20220926132545 9 216 12.9 19.3 0.00 0.00 0.00 55 939.5
20220926132045 8 216 14.5 22.5 0.00 0.00 0.00 55 939.4
20220926131550 9 214 12.9 24.1 0.00 0.00 0.00 55 939.5
20220926130543 8 220 12.9 19.3 0.00 0.00 0.00 56 939.4
20220926130043 8 222 12.9 19.3 0.00 0.00 0.00 56 939.4
20220926125542 8 221 12.9 19.3 0.00 0.00 0.00 56 939.5
20220926125056 8 223 12.9 19.3 0.00 0.00 0.00 56 939.4
20220926124542 8 224 14.5 19.3 0.00 0.00 0.00 56 939.4
20220926124041 8 226 14.5 19.3 0.00 0.00 0.00 56 939.3
20220926123542 8 223 11.3 16.1 0.00 0.00 0.00 57 939.3
20220926123039 8 216 9.7 16.1 0.00 0.00 0.00 57 939.3
20220926122540 8 223 11.3 14.5 0.00 0.00 0.00 56 939.5
20220926122039 8 221 9.7 14.5 0.00 0.00 0.00 56 939.4
20220926121538 8 226 9.7 14.5 0.00 0.00 0.00 57 939.6
20220926120541 8 211 9.7 14.5 0.00 0.00 0.00 56 939.6
20220926120055 8 215 9.7 12.9 0.00 0.00 0.00 55 939.5
20220926115539 8 209 9.7 12.9 0.00 0.00 0.00 54 939.6
20220926115036 8 217 9.7 12.9 0.00 0.00 0.00 54 939.6
20220926114537 8 219 8.0 14.5 0.00 0.00 0.00 54 939.6
20220926114035 8 221 9.7 14.5 0.00 0.00 0.00 55 939.5
20220926113536 8 208 8.0 14.5 0.00 0.00 0.00 55 939.6
20220926113035 8 210 9.7 16.1 0.00 0.00 0.00 55 939.7
20220926112535 8 209 9.7 16.1 0.00 0.00 0.00 55 939.6
20220926112034 8 211 11.3 16.1 0.00 0.00 0.00 54 939.6
20220926111534 8 211 11.3 16.1 0.00 0.00 0.00 54 939.7
20220926110535 8 214 11.3 17.7 0.00 0.00 0.00 54 939.6
20220926110046 8 209 11.3 16.1 0.00 0.00 0.00 54 939.6
20220926105533 8 219 11.3 16.1 0.00 0.00 0.00 54 939.7
20220926105030 8 221 11.3 17.7 0.00 0.00 0.00 54 939.8
20220926104532 8 217 11.3 16.1 0.00 0.00 0.00 53 939.8
20220926104037 9 212 12.9 19.3 0.00 0.00 0.00 53 939.8
20220926103530 9 215 12.9 19.3 0.00 0.00 0.00 53 939.6
20220926103035 8 216 12.9 17.7 0.00 0.00 0.00 55 939.8
20220926102526 8 215 11.3 16.1 0.00 0.00 0.00 55 939.9
20220926102032 8 209 11.3 16.1 0.00 0.00 0.00 56 939.7
20220926101526 8 203 11.3 16.1 0.00 0.00 0.00 56 939.9
20220926100528 7 207 9.7 14.5 0.00 0.00 0.00 58 940.1
20220926100029 7 211 9.7 14.5 0.00 0.00 0.00 58 940.0
20220926095527 7 210 9.7 12.9 0.00 0.00 0.00 57 940.1
20220926095024 8 209 8.0 11.3 0.00 0.00 0.00 56 940.2
20220926094530 8 211 8.0 11.3 0.00 0.00 0.00 55 940.2
20220926094024 8 210 8.0 14.5 0.00 0.00 0.00 54 940.3
20220926093525 8 204 9.7 14.5 0.00 0.00 0.00 53 940.2
20220926093036 8 209 9.7 12.9 0.00 0.00 0.00 53 940.2
20220926092524 9 206 8.0 12.9 0.00 0.00 0.00 52 940.2
20220926092032 8 213 8.0 12.9 0.00 0.00 0.00 53 940.1
20220926091542 9 210 8.0 16.1 0.00 0.00 0.00 52 940.2
20220926090526 10 229 11.3 17.7 0.00 0.00 0.00 49 940.2
20220926090104 9 213 11.3 17.7 0.00 0.00 0.00 50 940.1
20220926085523 8 221 9.7 14.5 0.00 0.00 0.00 53 940.4
20220926085022 8 217 11.3 14.5 0.00 0.00 0.00 54 940.3
20220926084549 8 219 9.7 14.5 0.00 0.00 0.00 55 940.3
20220926084021 8 215 9.7 14.5 0.00 0.00 0.00 55 940.3
20220926083524 8 220 9.7 14.5 0.00 0.00 0.00 54 940.4
20220926083027 8 216 9.7 16.1 0.00 0.00 0.00 54 940.5
20220926082520 8 217 9.7 16.1 0.00 0.00 0.00 55 940.5
20220926082020 8 213 11.3 14.5 0.00 0.00 0.00 57 940.6
20220926081521 7 218 9.7 12.9 0.00 0.00 0.00 60 940.7
20220926080519 6 229 6.4 9.7 0.00 0.00 0.00 64 940.7
20220926080023 6 229 6.4 8.0 0.00 0.00 0.00 65 940.7
20220926075521 6 229 6.4 8.0 0.00 0.00 0.00 65 940.6
20220926075024 6 229 6.4 9.7 0.00 0.00 0.00 64 940.7
20220926074520 6 229 8.0 9.7 0.00 0.00 0.00 64 940.8
20220926074020 6 229 6.4 9.7 0.00 0.00 0.00 65 940.7
20220926073520 6 229 6.4 9.7 0.00 0.00 0.00 65 940.7
20220926073032 6 229 6.4 9.7 0.00 0.00 0.00 65 940.7
20220926072520 6 229 6.4 9.7 0.00 0.00 0.00 65 940.8
20220926072016 6 229 6.4 8.0 0.00 0.00 0.00 65 940.9
20220926071517 6 229 4.8 8.0 0.00 0.00 0.00 64 941.0
20220926070519 7 229 6.4 9.7 0.00 0.00 0.00 63 941.0
20220926070020 7 229 6.4 9.7 0.00 0.00 0.00 63 941.0
20220926065516 7 230 4.8 8.0 0.00 0.00 0.00 62 941.0
20220926065017 7 230 4.8 9.7 0.00 0.00 0.00 62 941.0
20220926064535 7 229 6.4 9.7 0.00 0.00 0.00 63 941.0
20220926064023 7 230 6.4 8.0 0.00 0.00 0.00 65 941.1
20220926063516 7 231 4.8 8.0 0.00 0.00 0.00 65 940.9
20220926063036 6 231 6.4 8.0 0.00 0.00 0.00 66 940.9
20220926062519 6 231 4.8 8.0 0.00 0.00 0.00 68 941.1
20220926062015 6 232 6.4 8.0 0.00 0.00 0.00 69 941.1
20220926061514 5 249 6.4 8.0 0.00 0.00 0.00 71 941.1
20220926060511 5 300 3.2 4.8 0.00 0.00 0.00 73 941.3
20220926060013 5 300 0.0 0.0 0.00 0.00 0.00 73 941.3
20220926055518 5 300 0.0 0.0 0.00 0.00 0.00 73 941.2
20220926055018 5 300 0.0 0.0 0.00 0.00 0.00 71 941.3
20220926054511 6 300 0.0 0.0 0.00 0.00 0.00 71 941.3
20220926054009 6 300 0.0 0.0 0.00 0.00 0.00 70 941.3
20220926053511 6 300 0.0 0.0 0.00 0.00 0.00 69 941.3
20220926053004 6 300 0.0 0.0 0.00 0.00 0.00 68 941.3
20220926052502 7 300 0.0 0.0 0.00 0.00 0.00 66 941.3
20220926052005 7 300 0.0 0.0 0.00 0.00 0.00 64 941.3
20220926051510 7 300 0.0 0.0 0.00 0.00 0.00 63 941.5
20220926050503 7 300 0.0 0.0 0.00 0.00 0.00 64 941.6
20220926050003 7 300 0.0 0.0 0.00 0.00 0.00 65 941.6
20220926045506 7 300 0.0 0.0 0.00 0.00 0.00 65 941.6
20220926045006 7 301 0.0 0.0 0.00 0.00 0.00 65 941.5
20220926044500 7 301 0.0 0.0 0.00 0.00 0.00 64 941.6
20220926044101 8 301 0.0 0.0 0.00 0.00 0.00 61 941.5
20220926043507 8 301 0.0 0.0 0.00 0.00 0.00 59 941.4
20220926043110 8 301 0.0 0.0 0.00 0.00 0.00 58 941.4
20220926042600 8 301 0.0 0.0 0.00 0.00 0.00 59 941.3
20220926042059 8 301 0.0 0.0 0.00 0.00 0.00 60 941.3
20220926041600 8 301 0.0 0.0 0.00 0.00 0.00 61 941.5
20220926040610 8 301 0.0 0.0 0.00 0.00 0.00 60 941.6
20220926040111 9 301 0.0 0.0 0.00 0.00 0.00 60 941.6
20220926035558 9 301 0.0 0.0 0.00 0.00 0.00 57 941.5
20220926035100 10 301 0.0 0.0 0.00 0.00 0.00 58 941.6
20220926034558 10 301 0.0 0.0 0.00 0.00 0.00 55 941.5
20220926034101 10 301 0.0 0.0 0.00 0.00 0.00 54 941.7
20220926033558 11 301 0.0 0.0 0.00 0.00 0.00 52 941.6
20220926033056 11 301 0.0 0.0 0.00 0.00 0.00 52 941.8
20220926032557 11 301 0.0 0.0 0.00 0.00 0.00 51 941.7
20220926032101 10 301 0.0 0.0 0.00 0.00 0.00 51 941.7
20220926031604 11 301 0.0 0.0 0.00 0.00 0.00 53 941.7
20220926030559 11 301 0.0 0.0 0.00 0.00 0.00 51 941.8
20220926030101 11 301 0.0 0.0 0.00 0.00 0.00 51 941.9
20220926025557 11 301 0.0 0.0 0.00 0.00 0.00 50 941.9
20220926025057 12 301 0.0 0.0 0.00 0.00 0.00 48 941.9
20220926024622 12 301 0.0 0.0 0.00 0.00 0.00 46 942.0
20220926024057 13 301 0.0 4.8 0.00 0.00 0.00 45 941.8
20220926023558 13 301 1.6 4.8 0.00 0.00 0.00 45 941.9
20220926023110 12 301 0.0 1.6 0.00 0.00 0.00 45 942.0
20220926022556 12 301 0.0 1.6 0.00 0.00 0.00 46 941.9
20220926022056 12 301 0.0 3.2 0.00 0.00 0.00 48 942.1
20220926021559 13 301 0.0 3.2 0.00 0.00 0.00 49 942.1